Regional Weather Roundup
Issued by NWS Midland/Odessa, TX

Skip options and go directly to product.
Home | Oldest Version | Previous Version | Current Version | All | Graphics & Text | Save Text | Print | Product List | Glossary On

Skip product version selection by date and time.   
172
ASUS44 KMAF 271510
RWRMAF
MIDLAND AREA WEATHER ROUNDUP
NATIONAL WEATHER SERVICE MIDLAND TX
900 AM CST FRI FEB 27 2015

...IN SOUTHWEST TEXAS AND SOUTHEAST NEW MEXICO...

CITY           SKY/WX    TMP DP  RH WIND       PRES   REMARKS
ALPINE         CLOUDY    24  23  96 NE5       30.19R WCI  18
ANDREWS        LGT SNOW  17  16  94 E13       30.28R WCI   4
ARTESIA        CLOUDY    21  21 100 SE13      30.24R WCI   9
BIG SPRING     CLOUDY    21  17  86 NE15      30.35R WCI   7
CARLSBAD       CLOUDY    23  19  85 E10       30.23R FOG     WCI  12
DRYDEN           N/A     31  28  89 E10       30.24R WCI  22
FORT STOCKTON  CLOUDY    24  24 100 E10       30.23R FOG     WCI  14
GUAD PASS      FOG       18  16  92 NE25      30.04R VSB 1/2 WCI   0
HOBBS          LGT SNOW  16  16 100 E14       30.25R WCI   1
MARFA          CLOUDY    27  25  93 NE9       30.09S WCI  17
MIDLAND AIRPK  CLOUDY    21  19  91 NE12      30.31R FOG     WCI   9
MIDLAND INTL   CLOUDY    20  17  88 E17       30.28R FOG     WCI   5
ODESSA         CLOUDY    19  16  88 E17       30.28R FOG     WCI   4
PECOS          CLOUDY    25  24  93 E12       30.27R FOG     WCI  15
PRESIDIO       CLOUDY    36  26  66 NE14G21   30.12S WCI  27
SEMINOLE       LGT SNOW  17  14  88 E10       30.29R VSB 3/4 WCI   5
SNYDER         CLOUDY    17  13  87 NE14      30.37R FOG     WCI   3
WINK           CLOUDY    21  17  84 NE17      30.26R FOG     WCI   7
$$
...OTHER STATIONS IN TEXAS...

CITY           SKY/WX    TMP DP  RH WIND       PRES   REMARKS
ABILENE        LGT SNOW  21  18  88 NE9       30.39R FOG     WCI  11
AMARILLO       LGT SNOW  12   8  84 E14       30.29F VSB 3/4 WCI  -3
AUSTIN         CLOUDY    34  22  61 NE15      30.40R WCI  24
BROWNSVILLE    CLOUDY    52  47  83 N10       30.23R
CORPUS CHRISTI CLOUDY    42  35  76 NE20G26   30.29S WCI  33
DALLAS FTW     LGT SNOW  26  13  57 NE13      30.50R WCI  15
DEL RIO        CLOUDY    37  25  61 SE8       30.32R WCI  31
EL PASO        CLOUDY    31  23  72 NE7       30.05R WCI  24
HOUSTON INT    CLOUDY    39  30  70 E9        30.41R WCI  33
LUBBOCK        LGT SNOW  14  11  87 E10       30.31R FOG     WCI   1
SAN ANGELO     CLOUDY    25  22  88 NE12      30.34R WCI  14
SAN ANTONIO    CLOUDY    36  23  59 NE10G20   30.35R WCI  28
WACO           CLOUDY    29  19  66 N12       30.47R WCI  19
WICHITA FALLS  NOT AVBL
$$
...OTHER LOCATIONS IN NEW MEXICO...

CITY           SKY/WX    TMP DP  RH WIND       PRES   REMARKS
ALAMAGORDO     PTSUNNY   32  28  86 N8        30.05R WCI  25
ALBUQUERQUE    CLOUDY    24  17  74 NW3       30.00R
CANNON AFB     FLURRIES  12   9  86 SE15      30.21R WCI  -4
CLOVIS         CLOUDY    12   9  85 SE16      30.22R WCI  -4
HOLLOMAN AFB   CLOUDY    32  27  82 N6        30.04R WCI  26
ROSWELL        CLOUDY    19  14  81 E13       30.22R WCI   6
RUIDOSO        HVY SNOW  14  10  85 SE12      30.03R VSB<1/4 WCI   0
SANTA FE       CLOUDY    17   9  70 SE17G24   29.98R WCI   1
TRUTH OR CONSE CLOUDY    32  27  81 S7        29.98R WCI  26
TUCUMCARI      FLURRIES  16  11  80 SE12      30.21R WCI   3
$$

USA.gov is the U.S. government's official web portal to all federal, state and local government web resources and services.